Location: Newark
(49.8348°N, 24.0280°E)
Time: 21:50:53
(UTC+00:00)

Transit 2A - Pass Details

Date: 26 January 2020
Orbit: 600 x 959 km, 66.7° (Epoch: 19 February)

Event Time Altitude Azimuth Distance (km) Brightness Sun altitude
Rises 00:50:04 0° 327° (NNW) 2,915 - -49.2°
Reaches altitude 10° 00:52:44 10° 343° (NNW) 2,043 - -48.8°
Maximum altitude 00:56:21 22° 35° (NE) 1,452 - -48.3°
Drops below altitude 10° 01:00:11 10° 86° (E) 2,183 - -47.8°
Sets 01:03:07 0° 101° (ESE) 3,170 - -47.4°
Exits shadow 01:03:13 - 102° (ESE) 3,203 9.6 -47.4°
